Miscellaneous Local Product
Issued by NWS North Platte, NE

Home | Current Version | Previous Version | Text Only | Print | Product List | Glossary On
Versions: 1 2 3 4 5 6 7 8 9 10 11 12 13 14 15 16 17 18 19 20 21 22 23 24 25 26 27 28 29 30 31 32 33 34 35 36 37 38 39 40 41 42 43 44 45 46 47 48 49 50
000
AXUS43 KLBF 220810
MISLBF


WESTERN AND NORTH CENTRAL NEBRASKA HOURLY WEATHER ROUNDUP
NATIONAL WEATHER SERVICE NORTH PLATTE NE
300 AM CDT MON SEP 22 2014

***STATIONS NOT REPORTING VARIABLES SUCH AS SKY/WEATHER OR
PRESSURE ARE PROVIDED BY THE NEBRASKA DEPARTMENT OF
ROADS...RAWS...AND APRS NETWORKS...AND ARE NOT UNDER
NATIONAL WEATHER SERVICE QUALITY CONTROL***

...OBSERVATIONS IN AND NEAR THE EASTERN PANHANDLE OF NEBRASKA...

CITY           SKY/WX    TMP DP  RH WIND       PRES   REMARKS
PINE RIDGE     PTCLDY    62  36  37 S23G29    30.21F
CHADRON        MOCLDY    63  40  42 S14G25    30.18F
ALLIANCE       MOCLDY    53  41  63 S12       30.25F
SIDNEY         PTCLDY    59  39  47 S14       30.28F
WHITECLAY        N/A     53  36  53 E9          N/A
RUSHVILLE        N/A     56  35  46 S14         N/A
LISCO            N/A     62  38  40 E12         N/A
BIG SPRINGS      N/A     60  44  56 CALM        N/A
$$

...OBSERVATIONS IN NORTH CENTRAL NEBRASKA...

CITY           SKY/WX    TMP DP  RH WIND       PRES   REMARKS
VALENTINE      CLEAR     51  42  71 S12       30.27F
THEDFORD       PTCLDY    54  42  65 S6        30.29F
AINSWORTH      CLEAR     45  40  84 S8        30.29S
O`NEILL        CLEAR     44  43  98 S5        30.29F
ORD            CLEAR     42  39  89 CALM      30.30S
BROKEN BOW     CLEAR     42  39  89 CALM      30.30F
SPRINGVIEW       N/A     39  37  93 CALM        N/A
ROSE             N/A     50  45  83 E3          N/A
NEWPORT          N/A     44  40  88 S6          N/A
COMSTOCK         N/A     50  45  81 S6          N/A
CHAMBERS         N/A     47  43  87 S3          N/A
$$

...OBSERVATIONS IN SOUTHWEST NEBRASKA AND FAR NORTHEAST COLORADO...

CITY           SKY/WX    TMP DP  RH WIND       PRES   REMARKS
WRAY           CLOUDY    64  40  42 SE7       30.29F
HOLYOKE        FAIR      59  43  55 SE6       30.29F
IMPERIAL       CLOUDY    59  41  51 SE7       30.29F
OGALLALA       PTCLDY    56  45  64 SE3       30.28F
NORTH PLATTE   PTCLDY    48  43  82 E6        30.30S
MCCOOK         MOCLDY    55  44  66 NE3       30.30S
LEXINGTON      PTCLDY    47  45  91 CALM      30.31S
PAXTON           N/A     56  44  63 CALM        N/A
SUTHERLAND       N/A     49  39  68 CALM        N/A
BRADY            N/A     50  43  75 CALM        N/A
GOTHENBURG       N/A     52  41  67 E3          N/A
CALLAWAY         N/A     46  44  91 SE6         N/A
$$

...SOME WEATHER OBSERVATIONS FROM AROUND THE REGION...

CITY           SKY/WX    TMP DP  RH WIND       PRES   REMARKS
DENVER         MOCLDY    57  47  69 S10       30.26F
LARAMIE        MOCLDY    50  41  71 S12       30.32R
CHEYENNE       MOCLDY    52  41  66 S9        30.30S
SCOTTSBLUFF    PTCLDY    56  44  64 E12       30.23F
RAPID CITY     MOCLDY    52  38  58 SE12      30.19F
PIERRE         CLEAR     47  42  83 SE7       30.21F
WINNER         FAIR      49  42  77 S9        30.25F
SIOUX FALLS    CLEAR     46  44  93 CALM      30.28R
OMAHA          CLEAR     51  49  92 CALM      30.30R
GRAND ISLAND   CLEAR     50  44  80 CALM      30.31F
KANSAS CITY    CLEAR     52  47  83 CALM      30.27S
WICHITA        PTCLDY    60  46  59 E7        30.26S
HAYS           PTCLDY    54  43  66 E6        30.30S
LIBERAL        PTCLDY    63  43  48 E6        30.32S
GOODLAND       MOCLDY    56  42  59 S9        30.31F
$$



USA.gov is the U.S. government's official web portal to all federal, state and local government web resources and services.